Terug naar catalogus

STARLINK-36784

ActiefCommunicatieVLEO
NORAD 67877·PAYLOAD·🇺🇸 United States

Gelanceerd Feb 20, 2026 vanaf Vandenberg Space Force Base

Loading…

Volgende Passages (komende 24 uur)

TLE

VersSource: CelesTrak SupGP

Epoch: Sep 15, 2026, 03:25 UTC

1 67877C 26034AD  26258.14284722  .00000394  00000+0  11643-4 0  2585
2 67877  53.1590  42.8835 0000850  84.0087 193.6081 15.34370014    17

Volg STARLINK-36784 in realtime met AllMySat

Download on the App Store